DW5656 Weather Reports


Display with metric or nautical units.
time (UTC)temp
F
wind
direction
speed
MPH
gust
MPH
rain 1hr
in
rain 24hr
in
rain mn
in
humidity
%
barometer
mb
20180816061710 71 194 2.0 4.0 0.00 0.00 0.00 76 1015.3
20180816060810 71 193 2.0 4.0 0.00 0.00 0.00 76 1015.2
20180816055910 71 202 2.0 4.0 0.00 0.00 0.00 76 1015.3
20180816055010 70 200 2.0 4.0 0.00 0.00 0.00 76 1015.3
20180816054110 70 198 2.0 4.0 0.00 0.00 0.00 77 1015.2
20180816053210 71 195 2.0 4.0 0.00 0.00 0.00 77 1015.3
20180816052310 71 213 2.0 4.0 0.00 0.00 0.00 77 1015.2
20180816051410 71 215 1.0 4.0 0.00 0.00 0.00 77 1015.3
20180816050510 71 209 1.0 4.0 0.00 0.00 0.00 77 1015.2
20180816045610 71 200 2.0 4.0 0.00 0.00 0.00 76 1015.3
20180816044710 71 205 1.0 4.0 0.00 0.00 0.00 76 1015.2
20180816043810 71 247 2.0 3.0 0.00 0.00 0.00 76 1015.1
20180816042910 70 258 3.0 4.0 0.00 0.00 0.00 77 1015.0
20180816042010 70 266 3.0 7.0 0.00 0.00 0.00 77 1015.0
20180816041110 70 258 3.0 6.0 0.00 0.00 0.00 77 1015.1
20180816040210 70 251 2.0 8.0 0.00 0.00 0.00 77 1015.0
20180816035310 70 250 2.0 7.0 0.00 0.00 0.00 77 1015.1
20180816034410 70 221 3.0 7.0 0.00 0.00 0.00 77 1015.1
20180816033510 70 195 3.0 8.0 0.00 0.00 0.00 77 1015.1
20180816032610 70 193 2.0 7.0 0.00 0.00 0.00 77 1015.1
20180816031710 70 217 3.0 9.0 0.00 0.00 0.00 78 1015.2
20180816030810 70 202 3.0 9.0 0.00 0.00 0.00 78 1015.2
20180816025910 70 225 3.0 8.0 0.00 0.00 0.00 78 1015.2
20180816025010 70 217 3.0 9.0 0.00 0.00 0.00 79 1015.4
20180816024110 70 211 3.0 8.0 0.00 0.00 0.00 79 1015.3
20180816023210 70 200 3.0 7.0 0.00 0.00 0.00 79 1015.4
20180816022310 70 214 3.0 7.0 0.00 0.00 0.00 79 1015.4
20180816021410 70 203 3.0 7.0 0.00 0.00 0.00 80 1015.4
20180816020510 69 204 4.0 8.0 0.00 0.00 0.00 81 1015.4
20180816015610 69 204 3.0 7.0 0.00 0.00 0.00 82 1015.4
20180816014710 70 219 3.0 7.0 0.00 0.00 0.00 82 1015.4
20180816013810 70 212 2.0 7.0 0.00 0.00 0.00 82 1015.4
20180816012910 70 225 2.0 5.0 0.00 0.00 0.00 82 1015.3
20180816012010 70 233 1.0 5.0 0.00 0.00 0.00 83 1015.3
20180816011110 69 197 2.0 5.0 0.00 0.00 0.00 83 1015.2
20180816010210 69 214 3.0 6.0 0.00 0.00 0.00 83 1015.1
20180816005310 69 203 4.0 7.0 0.00 0.00 0.00 83 1015.2
20180816004410 70 211 3.0 8.0 0.00 0.00 0.00 82 1015.1
20180816003510 70 207 3.0 6.0 0.00 0.00 0.00 82 1015.1
20180816002610 70 204 3.0 8.0 0.00 0.00 0.00 82 1015.0
20180816001710 70 211 2.0 6.0 0.00 0.00 0.00 82 1015.0
20180816000810 70 213 3.0 7.0 0.00 0.00 0.00 81 1015.0
20180815235910 70 209 2.0 6.0 0.00 0.00 0.00 81 1015.0
20180815235010 70 200 2.0 6.0 0.00 0.00 0.00 81 1015.1
20180815234110 70 201 2.0 6.0 0.00 0.00 0.00 80 1015.2
20180815233210 70 206 3.0 6.0 0.00 0.00 0.00 80 1015.1
20180815232310 70 211 2.0 6.0 0.00 0.00 0.00 80 1015.1
20180815231410 70 218 2.0 6.0 0.00 0.00 0.00 80 1014.9
20180815230510 70 231 3.0 5.0 0.00 0.00 0.00 80 1014.8
20180815225610 70 241 3.0 9.0 0.00 0.00 0.00 80 1014.7
20180815224710 71 234 3.0 7.0 0.00 0.00 0.00 79 1014.7
20180815223810 71 237 3.0 8.0 0.00 0.00 0.00 79 1014.6
20180815222910 71 232 4.0 7.0 0.00 0.00 0.00 78 1014.6
20180815222010 71 234 2.0 8.0 0.00 0.00 0.00 78 1014.6
20180815221110 72 239 2.0 6.0 0.00 0.00 0.00 78 1014.6
20180815220209 72 207 3.0 6.0 0.00 0.00 0.00 78 1014.6
20180815215310 72 213 3.0 6.0 0.00 0.00 0.00 78 1014.7
20180815214409 72 203 4.0 7.0 0.00 0.00 0.00 78 1014.7
20180815213509 72 205 4.0 9.0 0.00 0.00 0.00 77 1014.7
20180815212609 72 205 4.0 8.0 0.00 0.00 0.00 77 1014.6
20180815211710 72 201 4.0 7.0 0.00 0.00 0.00 76 1014.6
20180815210810 72 203 4.0 8.0 0.00 0.00 0.00 75 1014.5
20180815205910 73 202 4.0 9.0 0.00 0.00 0.00 74 1014.6
20180815205010 73 211 4.0 11.0 0.00 0.00 0.00 74 1014.5
20180815204110 73 207 3.0 8.0 0.00 0.00 0.00 73 1014.5
20180815203210 74 200 3.0 6.0 0.00 0.00 0.00 72 1014.4
20180815202310 74 205 4.0 9.0 0.00 0.00 0.00 72 1014.2
20180815201410 74 203 4.0 9.0 0.00 0.00 0.00 71 1014.1
20180815200509 74 212 4.0 9.0 0.00 0.00 0.00 70 1013.9
20180815195610 75 206 5.0 10.0 0.00 0.00 0.00 70 1013.8
20180815194709 75 206 5.0 10.0 0.00 0.00 0.00 69 1013.7
20180815193810 76 205 5.0 9.0 0.00 0.00 0.00 68 1013.7
20180815192909 76 204 4.0 9.0 0.00 0.00 0.00 67 1013.6
20180815192009 77 202 4.0 9.0 0.00 0.00 0.00 65 1013.5
20180815191110 78 208 4.0 9.0 0.00 0.00 0.00 63 1013.4
20180815190209 79 212 4.0 10.0 0.00 0.00 0.00 61 1013.3
20180815185309 79 216 5.0 11.0 0.00 0.00 0.00 61 1013.2
20180815184409 80 214 4.0 11.0 0.00 0.00 0.00 57 1013.2
20180815183510 80 223 5.0 11.0 0.00 0.00 0.00 56 1013.1
20180815182609 81 212 5.0 13.0 0.00 0.00 0.00 55 1013.1
20180815181709 82 218 6.0 11.0 0.00 0.00 0.00 54 1012.9
20180815180809 82 223 5.0 13.0 0.00 0.00 0.00 55 1012.9
20180815175909 82 231 6.0 13.0 0.00 0.00 0.00 53 1012.9
20180815175010 82 240 6.0 13.0 0.00 0.00 0.00 53 1012.9
20180815174109 83 238 6.0 13.0 0.00 0.00 0.00 53 1012.8
20180815173209 83 234 6.0 12.0 0.00 0.00 0.00 53 1012.8
20180815172309 84 236 6.0 12.0 0.00 0.00 0.00 52 1012.8
20180815171409 84 243 7.0 13.0 0.00 0.00 0.00 51 1012.8
20180815170509 85 217 7.0 12.0 0.00 0.00 0.00 49 1012.9
20180815165609 85 220 6.0 15.0 0.00 0.00 0.00 51 1012.9
20180815164709 85 206 6.0 12.0 0.00 0.00 0.00 51 1012.8
20180815163809 85 205 5.0 11.0 0.00 0.00 0.00 53 1012.8
20180815162910 85 212 5.0 12.0 0.00 0.00 0.00 54 1013.0
20180815162009 85 212 7.0 13.0 0.00 0.00 0.00 54 1013.0
20180815161109 85 204 6.0 15.0 0.00 0.00 0.00 54 1013.0
20180815160209 86 205 6.0 13.0 0.00 0.00 0.00 53 1013.0
20180815155309 86 204 6.0 14.0 0.00 0.00 0.00 51 1013.1
20180815154409 87 213 6.0 12.0 0.00 0.00 0.00 48 1013.1
20180815153509 87 212 6.0 12.0 0.00 0.00 0.00 47 1013.2
20180815152609 86 223 6.0 14.0 0.00 0.00 0.00 47 1013.3
20180815151709 86 207 6.0 12.0 0.00 0.00 0.00 48 1013.3
20180815150809 86 223 6.0 15.0 0.00 0.00 0.00 48 1013.4
20180815145909 86 231 5.0 14.0 0.00 0.00 0.00 50 1013.4
20180815145009 86 222 7.0 14.0 0.00 0.00 0.00 51 1013.5
20180815144109 85 241 6.0 13.0 0.00 0.00 0.00 52 1013.7
20180815143209 85 226 6.0 14.0 0.00 0.00 0.00 53 1013.7
20180815142309 86 202 5.0 15.0 0.00 0.00 0.00 52 1013.8
20180815141409 85 190 5.0 15.0 0.00 0.00 0.00 53 1013.9
20180815140509 84 223 6.0 13.0 0.00 0.00 0.00 54 1014.0
20180815135609 84 219 6.0 13.0 0.00 0.00 0.00 54 1014.1
20180815134709 84 227 7.0 14.0 0.00 0.00 0.00 55 1014.1
20180815133809 83 190 6.0 14.0 0.00 0.00 0.00 56 1014.2
20180815132909 83 205 5.0 12.0 0.00 0.00 0.00 57 1014.3
20180815132009 83 211 5.0 11.0 0.00 0.00 0.00 55 1014.5
20180815131109 83 216 6.0 15.0 0.00 0.00 0.00 57 1014.5
20180815130209 82 216 5.0 14.0 0.00 0.00 0.00 57 1014.7
20180815125309 82 217 6.0 12.0 0.00 0.00 0.00 57 1014.8
20180815124409 82 230 5.0 13.0 0.00 0.00 0.00 57 1014.9
20180815123509 82 207 5.0 12.0 0.00 0.00 0.00 57 1015.0
20180815122609 82 196 6.0 11.0 0.00 0.00 0.00 58 1015.1
20180815121709 81 205 4.0 11.0 0.00 0.00 0.00 57 1015.2
20180815120809 81 230 5.0 11.0 0.00 0.00 0.00 58 1015.3
20180815115909 80 224 5.0 12.0 0.00 0.00 0.00 59 1015.3
20180815115009 80 189 5.0 11.0 0.00 0.00 0.00 58 1015.4
20180815114109 80 200 5.0 10.0 0.00 0.00 0.00 58 1015.3
20180815113209 79 186 5.0 13.0 0.00 0.00 0.00 60 1015.5
20180815112309 80 183 5.0 14.0 0.00 0.00 0.00 59 1015.5
20180815111409 79 174 5.0 14.0 0.00 0.00 0.00 59 1015.5
20180815110509 78 190 6.0 12.0 0.00 0.00 0.00 60 1015.6
20180815105609 78 177 6.0 14.0 0.00 0.00 0.00 60 1015.7
20180815104709 77 191 5.0 10.0 0.00 0.00 0.00 60 1015.8
20180815103809 77 204 4.0 11.0 0.00 0.00 0.00 62 1015.9
20180815102909 77 181 4.0 9.0 0.00 0.00 0.00 62 1016.1
20180815102009 76 220 4.0 9.0 0.00 0.00 0.00 64 1016.0
20180815101109 76 214 3.0 10.0 0.00 0.00 0.00 66 1016.0
20180815100209 75 207 3.0 8.0 0.00 0.00 0.00 68 1016.0
20180815095309 75 185 3.0 9.0 0.00 0.00 0.00 68 1016.0
20180815094409 74 196 3.0 10.0 0.00 0.00 0.00 69 1016.1
20180815093509 74 199 3.0 8.0 0.00 0.00 0.00 69 1016.0
20180815092609 74 213 3.0 8.0 0.00 0.00 0.00 72 1016.0
20180815091709 73 196 3.0 8.0 0.00 0.00 0.00 71 1016.0
20180815090809 73 221 3.0 7.0 0.00 0.00 0.00 73 1016.0
20180815085909 72 222 4.0 9.0 0.00 0.00 0.00 74 1016.0
20180815085009 72 192 5.0 10.0 0.00 0.00 0.00 74 1015.9
20180815084109 71 182 5.0 11.0 0.00 0.00 0.00 76 1015.9
20180815083209 71 188 4.0 10.0 0.00 0.00 0.00 77 1016.0
20180815082309 70 208 4.0 8.0 0.00 0.00 0.00 79 1015.9
20180815081409 70 188 5.0 10.0 0.00 0.00 0.00 80 1015.9
20180815080509 70 182 5.0 10.0 0.00 0.00 0.00 81 1015.7
20180815075609 70 218 4.0 10.0 0.00 0.00 0.00 82 1015.7
20180815074709 69 211 3.0 10.0 0.00 0.00 0.00 83 1015.7
20180815073809 69 199 3.0 9.0 0.00 0.00 0.00 84 1015.6
20180815072909 68 194 3.0 8.0 0.00 0.00 0.00 85 1015.6
20180815072009 68 215 3.0 7.0 0.00 0.00 0.00 86 1015.5
20180815071109 68 216 3.0 6.0 0.00 0.00 0.00 86 1015.5
20180815070209 68 211 3.0 8.0 0.00 0.00 0.00 87 1015.5
20180815065309 67 201 2.0 6.0 0.00 0.00 0.00 88 1015.4
20180815064409 67 213 2.0 7.0 0.00 0.00 0.00 88 1015.4
20180815063509 67 222 2.0 6.0 0.00 0.00 0.00 88 1015.3
20180815062609 67 234 2.0 6.0 0.00 0.00 0.00 88 1015.2